Home   Weather   Durham   Past weeks

Flag for USA Past Weather in Durham, North Carolina, USA — Yesterday and Last 2 Weeks

Now
72 °F

Broken clouds.


Feels Like: 69 °F
Forecast: 70 / 87 °F
Wind: 8 mph from Southwest

Location: Raleigh-Durham International Airport

Current Time: Apr 29, 2017 at 7:50:16 am

Latest Report: Apr 29, 2017 at 6:51 am


Visibility: 8 mi

Pressure: 30.17 "Hg

Humidity: 91%

Dew Point: 69 °F

Location of DurhamLocation

Past Weather in Durham — Graph

°F

Durham Temperature Yesterday

Maximum temperature yesterday: 87 °F (at 4:51 pm)
Minimum temperature yesterday: 69 °F (at 6:51 am)
Average temperature yesterday: 78 °F

High & Low Weather Summary for the Past Weeks

 TemperatureHumidityPressure
High87 °F (Apr 21, 3:51 pm)100% (Apr 22, 5:51 am)30.37 "Hg (Apr 22, 5:51 am)
Low53 °F (Apr 23, 9:51 am)34% (Apr 16, 4:51 pm)29.59 "Hg (Apr 25, 4:58 am)
Average67 °F74%30.02 "Hg
* Reported Apr 14 5:51 am — Apr 29 5:51 am, Durham, Weather by CustomWeather, © 2017

Note: Actual official high and low records may vary slightly from our data, if they occured in-between our weather recording intervals... More about our weather records

Advertising

Durham Weather History for the Previous 24 Hours

Scroll right to see more
 ConditionsComfort  
Time TempWeatherWind HumidityBarometerVisibility
5:51 am
Sat, Apr 29
73 °FPassing clouds.9 mph88%30.15 "Hg8 mi
4:51 am74 °FPassing clouds.12 mph88%30.14 "Hg7 mi
3:51 am74 °FPassing clouds.10 mph91%30.11 "Hg7 mi
2:51 am75 °FPassing clouds.10 mph88%30.09 "Hg7 mi
1:51 am76 °FPassing clouds.10 mph88%30.09 "Hg7 mi
12:51 am77 °FPassing clouds.12 mph85%30.09 "Hg8 mi
11:51 pm
Fri, Apr 28
78 °FPassing clouds.13 mph79%30.09 "Hg10 mi
10:51 pm79 °FPassing clouds.10 mph69%30.08 "Hg10 mi
9:51 pm80 °FPassing clouds.12 mph60%30.06 "Hg10 mi
8:51 pm80 °FPassing clouds.9 mph58%30.04 "Hg10 mi
7:51 pm82 °FPassing clouds.7 mph55%30.03 "Hg10 mi
6:51 pm85 °FScattered clouds.9 mph51%30.03 "Hg10 mi
5:51 pm87 °FScattered clouds.10 mph50%30.03 "Hg10 mi
4:51 pm87 °FScattered clouds.13 mph51%30.03 "Hg10 mi
3:51 pm86 °FPartly sunny.14 mph55%30.03 "Hg10 mi
2:51 pm84 °FBroken clouds.9 mph61%30.05 "Hg10 mi
1:51 pm83 °FBroken clouds.9 mph63%30.06 "Hg10 mi
12:51 pm82 °FPartly sunny.12 mph65%30.06 "Hg10 mi
11:51 am81 °FPartly sunny.9 mph67%30.07 "Hg10 mi
10:51 am79 °FScattered clouds.6 mph69%30.06 "Hg10 mi
9:51 am77 °FScattered clouds.7 mph74%30.05 "Hg10 mi
8:51 am75 °FPassing clouds.13 mph79%30.03 "Hg10 mi
7:51 am71 °FPassing clouds.8 mph90%30.02 "Hg9 mi
Weather by CustomWeather, © 2017

See weather overviewHow to use our weather pages